Grand Junction, CO

3:16 AM MST on November 17, 2019 (GMT -0700)
Walker

Weather History for KGJT - September, 2019

Change the Weather History Date:

Monday, September 23, 2019

  Actual Average Record
Temperature  
Mean Temperature 65 °F 63 °F  
Max Temperature 80 °F 77 °F 90 °F (1966)
Min Temperature 50 °F 49 °F 35 °F (1895)
Degree Days  
Heating Degree Days 0 4  
Month to date heating degree days 26 37  
Since 1 July heating degree days 26 40  
Cooling Degree Days 0 2  
Month to date cooling degree days 143 96  
Year to date cooling degree days 1264 1115  
Growing Degree Days 15 (Base 50)    
Moisture  
Dew Point 25 °F    
Average Humidity 25    
Maximum Humidity 38    
Minimum Humidity 12    
Precipitation  
Precipitation 0.00 in 0.04 in 1.70 in (1896)
Month to date precipitation 0.24 0.91  
Year to date precipitation 7.10 6.76  
Snow  
Snow 0.00 in 0.00 in 0.00 in (2018)
Month to date snowfall 0.0 0.0  
Since 1 July snowfall 0.0 0.0  
Since 1 September snowfall 0.0 0.0  
Snow Depth 0.00 in    
Sea Level Pressure  
Sea Level Pressure 29.97 in    
Wind  
Wind Speed 8 mph (ESE)    
Max Wind Speed 16 mph    
Max Gust Speed 21 mph    
Visibility 10 miles    
Events      
T = Trace of Precipitation, MM = Missing Value Source: NWS Daily Summary

Daily Weather History Graph

Daily Weather History Graph

Search for Another Location

Airport or City:

Astronomy

Sep. 23, 2019 Rise Set
Actual Time 7:02 AM MDT 7:09 PM MDT
Civil Twilight 6:35 AM MDT 7:36 PM MDT
Nautical Twilight 6:04 AM MDT 8:07 PM MDT
Astronomical Twilight 5:32 AM MDT 8:39 PM MDT
Moon 12:51 AM MDT (9/23) 4:03 PM MDT (9/23)
Length of Visible Light 13h 00m
Length of Day
12h 07m
Waning Crescent, 32% of the Moon is Illuminated
Sep 23
Waning Crescent
Sep 28
New
Oct 5
First Quarter
Oct 13
Full
Oct 21
Last Quarter

Hourly Weather History & Observations

Time (MDT) Temp. Dew Point Humidity Pressure Visibility Wind Dir Wind Speed Gust Speed Precip Events Conditions
12:53 AM 57.9 °F 24.1 °F 27% 29.98 in 10.0 mi ESE 11.5 mph - N/A   Clear
1:53 AM 55.9 °F 25.0 °F 30% 29.97 in 10.0 mi ESE 11.5 mph - N/A   Clear
2:53 AM 57.9 °F 25.0 °F 28% 29.96 in 10.0 mi East 11.5 mph - N/A   Clear
3:53 AM 52.0 °F 26.1 °F 37% 29.97 in 10.0 mi ESE 11.5 mph - N/A   Clear
4:53 AM 54.0 °F 25.0 °F 33% 29.96 in 10.0 mi ESE 15.0 mph - N/A   Clear
5:53 AM 54.0 °F 24.1 °F 31% 29.97 in 10.0 mi ESE 9.2 mph - N/A   Clear
6:53 AM 51.1 °F 24.1 °F 35% 30.00 in 10.0 mi East 10.4 mph - N/A   Clear
7:53 AM 52.0 °F 26.1 °F 37% 30.04 in 10.0 mi ESE 13.8 mph - N/A   Clear
8:53 AM 59.0 °F 26.1 °F 28% 30.05 in 10.0 mi Variable 5.8 mph - N/A   Clear
9:53 AM 64.0 °F 27.0 °F 25% 30.05 in 10.0 mi SSE 6.9 mph - N/A   Clear
10:53 AM 68.0 °F 27.0 °F 21% 30.02 in 10.0 mi SE 10.4 mph - N/A   Clear
11:53 AM 72.0 °F 26.1 °F 18% 29.99 in 10.0 mi South 3.5 mph - N/A   Clear
12:53 PM 75.0 °F 26.1 °F 16% 29.96 in 10.0 mi SW 6.9 mph - N/A   Clear
1:53 PM 79.0 °F 23.0 °F 13% 29.93 in 10.0 mi WNW 8.1 mph - N/A   Clear
2:53 PM 78.1 °F 25.0 °F 14% 29.91 in 10.0 mi WNW 11.5 mph - N/A   Clear
3:53 PM 78.1 °F 24.1 °F 14% 29.92 in 10.0 mi WNW 9.2 mph - N/A   Clear
4:53 PM 78.1 °F 26.1 °F 15% 29.92 in 10.0 mi WNW 13.8 mph - N/A   Clear
5:53 PM 77.0 °F 23.0 °F 13% 29.92 in 10.0 mi NW 10.4 mph - N/A   Clear
6:53 PM 73.0 °F 26.1 °F 17% 29.94 in 10.0 mi Calm Calm - N/A   Clear
7:53 PM 66.0 °F 25.0 °F 21% 29.98 in 10.0 mi Calm Calm - N/A   Clear
8:53 PM 60.1 °F 23.0 °F 24% 29.99 in 10.0 mi Calm Calm - N/A   Clear
9:53 PM 61.0 °F 25.0 °F 25% 29.98 in 10.0 mi NE 6.9 mph - N/A   Clear
10:53 PM 57.0 °F 26.1 °F 30% 29.99 in 10.0 mi NW 4.6 mph - N/A   Clear
11:53 PM 55.0 °F 28.0 °F 35% 29.99 in 10.0 mi Calm Calm - N/A   Clear